EW6014 Weather Reports


time (UTC)temp
C
wind
direction
speed
KPH
gust
KPH
rain 1hr
cm
rain 24hr
cm
rain mn
cm
humidity
%
barometer
mb
20260507180057 26 9 0.0 9.7 0.00 0.00 0.00 66 1009.0
20260507180029 26 0 0.0 11.3 0.00 0.00 0.00 66 1009.9
20260507174602 25 9 0.0 6.4 0.00 0.00 0.00 66 1009.2
20260507174537 25 0 0.0 6.4 0.00 0.00 0.00 66 1009.9
20260507173049 25 9 0.0 9.7 0.00 0.00 0.00 68 1008.9
20260507173035 25 0 0.0 11.3 0.00 0.00 0.00 67 1009.7
20260507171559 25 5 0.0 6.4 0.00 0.00 0.00 69 1009.2
20260507171533 25 0 0.0 6.4 0.00 0.00 0.00 68 1010.1
20260507170041 24 5 0.0 9.7 0.00 0.00 0.00 69 1009.5
20260507170034 24 5 0.0 9.7 0.00 0.00 0.00 69 1010.3
20260507164543 23 9 0.0 4.8 0.00 0.00 0.00 72 1009.6
20260507164530 23 0 0.0 4.8 0.00 0.00 0.00 71 1010.2
20260507163043 23 9 0.0 3.2 0.00 0.00 0.00 75 1009.5
20260507163033 23 9 0.0 3.2 0.00 0.00 0.00 74 1010.2
20260507161540 23 10 0.0 9.7 0.00 0.00 0.00 74 1010.0
20260507161530 23 0 0.0 11.3 0.00 0.00 0.00 74 1010.6
20260507160043 23 11 0.0 24.1 0.00 0.00 0.00 74 1009.7
20260507160030 23 0 1.6 24.1 0.00 0.00 0.00 73 1010.7
20260507154532 23 12 1.6 20.9 0.00 0.00 0.00 74 1009.7
20260507153033 23 13 0.0 11.3 0.00 0.00 0.00 77 1013.1
20260507151531 23 11 0.0 4.8 0.00 0.00 0.00 78 1011.9
20260507151528 23 12 0.0 6.4 0.00 0.00 0.00 78 1011.0
20260507150032 23 0 0.0 4.8 0.00 0.00 0.00 78 1012.2
20260507150029 23 19 0.0 4.8 0.00 0.00 0.00 79 1011.3
20260507144532 22 41 0.0 3.2 0.00 0.00 0.00 79 1010.4
20260507143315 22 0 0.0 4.8 0.00 0.00 0.00 79 1011.4
20260507141530 21 20 0.0 4.8 0.00 0.00 0.00 81 1010.3
20260507141523 21 21 0.0 4.8 0.00 0.00 0.00 81 1009.5
20260507140029 21 9 1.6 6.4 0.00 0.00 0.00 81 1012.1
20260507140022 21 9 1.6 6.4 0.00 0.00 0.00 81 1011.1
20260507134530 21 14 0.0 4.8 0.00 0.00 0.00 80 1011.1
20260507134522 21 14 0.0 4.8 0.00 0.00 0.00 80 1010.4
20260507133028 21 0 0.0 4.8 0.00 0.00 0.00 79 1012.8
20260507133021 21 17 0.0 3.2 0.00 0.00 0.00 79 1012.0
20260507131529 22 0 0.0 8.0 0.00 0.00 0.00 78 1013.0
20260507131520 22 9 0.0 4.8 0.00 0.00 0.00 78 1012.1
20260507130027 22 0 0.0 1.6 0.00 0.00 0.00 76 1014.4
20260507130025 22 9 0.0 0.0 0.00 0.00 0.00 76 1013.5
20260507124530 22 9 0.0 11.3 0.00 0.00 0.00 74 1010.4
20260507124526 22 9 1.6 9.7 0.00 0.00 0.00 75 1009.5
20260507123033 21 9 0.0 8.0 0.00 0.00 0.00 72 1010.3
20260507123016 21 9 0.0 8.0 0.00 0.00 0.00 72 1009.4
20260507121537 21 0 1.6 12.9 0.00 0.00 0.00 72 1009.9
20260507121516 21 9 0.0 12.9 0.00 0.00 0.00 72 1009.0
20260507120029 21 0 0.0 3.2 0.00 0.00 0.00 74 1011.8
20260507120012 21 9 0.0 3.2 0.00 0.00 0.00 74 1011.1
20260507114529 21 0 0.0 1.6 0.00 0.00 0.00 77 1013.3
20260507114510 21 5 0.0 1.6 0.00 0.00 0.00 77 1012.5
20260507113034 21 0 0.0 0.0 0.00 0.00 0.00 77 1012.8
20260507113014 21 5 0.0 0.0 0.00 0.00 0.00 77 1011.9
20260507111532 21 0 0.0 4.8 0.00 0.00 0.00 77 1012.9
20260507111513 21 5 0.0 1.6 0.00 0.00 0.00 77 1012.2
20260507110032 22 5 1.6 9.7 0.00 0.00 0.00 77 1013.5
20260507110023 22 5 1.6 6.4 0.00 0.00 0.00 78 1012.7
20260507104531 22 5 0.0 6.4 0.00 0.00 0.00 76 1013.0
20260507104506 22 5 0.0 6.4 0.00 0.00 0.00 76 1012.3
20260507103031 21 5 3.2 6.4 0.00 0.00 0.00 75 1013.3
20260507103006 21 5 3.2 6.4 0.00 0.00 0.00 76 1012.6
20260507101535 21 5 1.6 4.8 0.00 0.00 0.00 76 1013.8
20260507101507 21 5 1.6 4.8 0.00 0.00 0.00 77 1013.0
20260507100034 22 0 0.0 1.6 0.00 0.00 0.00 77 1013.9
20260507100006 22 9 0.0 1.6 0.00 0.00 0.00 78 1013.1
20260507094530 22 0 0.0 3.2 0.00 0.00 0.00 78 1013.8
20260507094504 22 9 0.0 3.2 0.00 0.00 0.00 79 1013.2
20260507093038 22 0 0.0 1.6 0.00 0.00 0.00 79 1013.6
20260507093002 22 9 0.0 1.6 0.00 0.00 0.00 80 1012.8
20260507091600 22 9 0.0 1.6 0.00 0.00 0.00 80 1012.7
20260507091529 22 0 0.0 1.6 0.00 0.00 0.00 80 1013.5
20260507090106 22 9 0.0 0.0 0.00 0.00 0.00 80 1012.3
20260507090033 22 0 0.0 0.0 0.00 0.00 0.00 80 1013.0
20260507084558 22 9 0.0 0.0 0.00 0.00 0.00 80 1011.4
20260507084528 22 0 0.0 0.0 0.00 0.00 0.00 80 1012.2
20260507083057 22 9 0.0 1.6 0.00 0.00 0.00 80 1011.3
20260507083038 22 0 0.0 1.6 0.00 0.00 0.00 80 1012.2
20260507081557 22 9 0.0 1.6 0.00 0.00 0.00 80 1011.1
20260507081531 22 0 0.0 1.6 0.00 0.00 0.00 79 1011.8
20260507080032 22 0 0.0 4.8 0.00 0.00 0.00 79 1011.7
20260507074607 22 9 0.0 4.8 0.00 0.00 0.00 79 1010.7
20260507074530 22 0 0.0 4.8 0.00 0.00 0.00 78 1011.5
20260507073055 23 9 0.0 3.2 0.00 0.00 0.00 78 1010.7
20260507073028 23 0 0.0 8.0 0.00 0.00 0.00 78 1011.6
20260507071553 23 9 0.0 6.4 0.00 0.00 0.00 77 1011.2
20260507071548 23 0 0.0 6.4 0.00 0.00 0.00 77 1012.0
20260507070106 23 9 0.0 4.8 0.00 0.00 0.00 77 1011.0
20260507070031 23 0 0.0 4.8 0.00 0.00 0.00 76 1011.8
20260507064554 23 9 0.0 6.4 0.00 0.00 0.00 76 1011.0
20260507064529 23 9 0.0 14.5 0.00 0.00 0.00 76 1011.9
20260507063057 23 9 0.0 9.7 0.00 0.00 0.00 76 1011.3
20260507063035 23 0 0.0 11.3 0.00 0.00 0.00 76 1012.1
20260507061549 22 9 0.0 11.3 0.00 0.00 0.00 76 1011.5
20260507061530 22 0 0.0 8.0 0.00 0.00 0.00 76 1012.3
20260507060048 22 9 0.0 14.5 0.00 0.00 0.00 77 1011.9
20260507060028 22 0 0.0 14.5 0.00 0.00 0.00 77 1012.8
20260507054546 22 9 3.2 17.7 0.00 0.00 0.00 78 1011.7
20260507054528 22 9 1.6 14.5 0.00 0.00 0.00 77 1012.6
20260507053041 22 9 1.6 8.0 0.00 0.00 0.00 79 1012.3
20260507053029 22 0 1.6 11.3 0.00 0.00 0.00 78 1013.0
20260507051540 22 9 1.6 9.7 0.00 0.00 0.00 80 1012.5
20260507051528 22 0 1.6 11.3 0.00 0.00 0.00 79 1013.2
20260507050038 22 9 0.0 9.7 0.00 0.00 0.00 81 1012.8
20260507050029 22 9 0.0 11.3 0.00 0.00 0.00 81 1013.5
20260507044540 22 9 1.6 9.7 0.00 0.00 0.00 83 1012.8
20260507044530 22 9 0.0 11.3 0.00 0.00 0.00 82 1013.6
20260507043038 22 9 0.0 9.7 0.00 0.00 0.00 83 1012.7
20260507043034 22 9 0.0 11.3 0.00 0.00 0.00 83 1013.5
20260507041534 22 9 0.0 8.0 0.00 0.00 0.00 84 1012.8
20260507041529 22 0 1.6 8.0 0.00 0.00 0.00 84 1013.6
20260507040034 22 9 0.0 8.0 0.00 0.00 0.00 85 1012.6
20260507040027 22 0 0.0 8.0 0.00 0.00 0.00 85 1013.5
20260507034535 22 9 0.0 14.5 0.00 0.00 0.00 86 1012.6
20260507034530 22 9 0.0 14.5 0.00 0.00 0.00 85 1013.4
20260507033030 22 9 0.0 8.0 0.00 0.00 0.00 86 1013.0
20260507033028 22 9 0.0 8.0 0.00 0.00 0.00 85 1013.7
20260507031530 22 9 0.0 6.4 0.00 0.00 0.00 86 1012.7
20260507031528 22 0 0.0 8.0 0.00 0.00 0.00 85 1013.5
20260507030132 22 9 0.0 14.5 0.00 0.00 0.00 86 1012.8
20260507030032 22 9 1.6 14.5 0.00 0.00 0.00 85 1013.7
20260507024529 22 0 0.0 4.8 0.00 0.00 0.00 84 1013.1
20260507023030 22 9 0.0 6.4 0.00 0.00 0.00 84 1013.3
20260507023028 22 9 0.0 6.4 0.00 0.00 0.00 85 1012.3
20260507021532 22 0 0.0 11.3 0.00 0.00 0.00 83 1013.0
20260507021529 22 9 0.0 9.7 0.00 0.00 0.00 84 1012.2
20260507020038 22 9 0.0 8.0 0.00 0.00 0.00 83 1012.6
20260507020033 22 0 0.0 8.0 0.00 0.00 0.00 83 1013.5
20260507014531 22 0 0.0 6.4 0.00 0.00 0.00 82 1013.5
20260507014526 22 9 0.0 6.4 0.00 0.00 0.00 82 1012.6
20260507013040 22 9 0.0 9.7 0.00 0.00 0.00 82 1012.8
20260507013036 22 9 0.0 11.3 0.00 0.00 0.00 81 1013.6
20260507011537 22 9 1.6 8.0 0.00 0.00 0.00 81 1014.0
20260507011525 22 9 0.0 8.0 0.00 0.00 0.00 82 1013.2
20260507010033 22 9 0.0 4.8 0.00 0.00 0.00 81 1013.9
20260507010031 22 9 0.0 4.8 0.00 0.00 0.00 82 1012.9
20260507004531 23 9 0.0 6.4 0.00 0.00 0.00 81 1013.7
20260507004524 23 9 0.0 6.4 0.00 0.00 0.00 81 1012.8
20260507003029 23 0 0.0 11.3 0.00 0.00 0.00 80 1013.8
20260507003024 23 9 0.0 9.7 0.00 0.00 0.00 80 1012.9
20260507001533 23 9 0.0 11.3 0.00 0.00 0.00 79 1013.5
20260507001529 23 9 0.0 6.4 0.00 0.00 0.00 79 1012.6
20260507000028 23 0 0.0 12.9 0.00 0.00 0.00 78 1013.5
20260507000023 23 9 0.0 6.4 0.00 0.00 0.00 79 1012.6
20260506234540 23 0 0.0 11.3 0.00 0.00 0.00 77 1013.5
20260506234529 23 9 0.0 9.7 0.00 0.00 0.00 78 1012.7
20260506233033 23 0 0.0 8.0 0.00 0.00 0.00 76 1013.4
20260506233021 23 9 0.0 6.4 0.00 0.00 0.00 76 1012.5
20260506231535 23 0 1.6 12.9 0.00 0.00 0.00 75 1013.3
20260506231526 23 9 3.2 12.9 0.00 0.00 0.00 75 1012.4
20260506230030 23 9 0.0 12.9 0.00 0.00 0.00 74 1013.4
20260506230021 23 9 0.0 12.9 0.00 0.00 0.00 74 1012.5
20260506224531 24 9 0.0 11.3 0.00 0.00 0.00 74 1013.4
20260506224519 24 9 0.0 9.7 0.00 0.00 0.00 74 1012.5
20260506223031 24 0 3.2 16.1 0.00 0.00 0.00 74 1013.7
20260506223017 24 9 1.6 11.3 0.00 0.00 0.00 74 1012.9
20260506221529 24 9 1.6 12.9 0.00 0.00 0.00 74 1013.6
20260506221516 24 9 1.6 12.9 0.00 0.00 0.00 74 1012.7
20260506220032 24 9 1.6 12.9 0.00 0.00 0.00 74 1013.5
20260506220023 24 9 1.6 12.9 0.00 0.00 0.00 74 1012.6
20260506214529 24 9 1.6 12.9 0.00 0.00 0.00 73 1013.5
20260506214515 24 9 1.6 8.0 0.00 0.00 0.00 73 1012.7
20260506213030 24 9 3.2 19.3 0.00 0.00 0.00 72 1013.6
20260506213013 24 9 6.4 17.7 0.00 0.00 0.00 72 1012.7
20260506211529 24 0 1.6 16.1 0.00 0.00 0.00 72 1013.8
20260506211519 24 9 0.0 16.1 0.00 0.00 0.00 72 1012.9
20260506210030 25 0 0.0 16.1 0.00 0.00 0.00 72 1013.9
20260506210017 25 9 1.6 16.1 0.00 0.00 0.00 72 1013.1
20260506204534 25 0 1.6 14.5 0.00 0.00 0.00 71 1014.0
20260506204509 25 9 1.6 14.5 0.00 0.00 0.00 72 1013.2
20260506203034 25 9 1.6 11.3 0.00 0.00 0.00 71 1014.1
20260506203007 25 9 1.6 9.7 0.00 0.00 0.00 71 1013.2
20260506201530 25 0 1.6 19.3 0.00 0.00 0.00 70 1014.3
20260506201507 25 9 0.0 12.9 0.00 0.00 0.00 71 1013.4
20260506200044 25 9 3.2 17.7 0.00 0.00 0.00 70 1014.3
20260506200010 25 9 3.2 17.7 0.00 0.00 0.00 70 1013.5
20260506194530 25 0 3.2 14.5 0.00 0.00 0.00 69 1014.2
20260506194504 25 9 3.2 14.5 0.00 0.00 0.00 70 1013.4
20260506193031 25 9 1.6 17.7 0.00 0.00 0.00 70 1014.5
20260506193002 25 9 0.0 17.7 0.00 0.00 0.00 70 1013.7
20260506191529 25 9 0.0 8.0 0.00 0.00 0.00 69 1014.6
20260506191501 25 9 0.0 8.0 0.00 0.00 0.00 70 1013.9
20260506190036 25 9 1.6 20.9 0.00 0.00 0.00 69 1014.8
20260506190002 25 9 1.6 16.1 0.00 0.00 0.00 70 1014.1
20260506184619 25 9 1.6 8.0 0.00 0.00 0.00 69 1014.3
20260506184529 25 9 0.0 11.3 0.00 0.00 0.00 68 1015.1
20260506183100 25 9 4.8 17.7 0.00 0.00 0.00 68 1014.4
20260506183029 25 9 4.8 17.7 0.00 0.00 0.00 67 1015.2
20260506181559 26 9 3.2 16.1 0.00 0.00 0.00 65 1014.4
20260506181530 26 9 1.6 16.1 0.00 0.00 0.00 65 1015.2